Terminal Aerodrome Forecast
Issued by NWS

Home | Current Version | Previous Version | Text Only | Print | Product List | Glossary On
Versions: 1 2 3 4 5 6 7 8 9 10 11 12 13 14 15 16 17 18 19 20 21 22 23 24 25 26 27
000
FTUS43 KAPX 230903 AAA
TAFMBL
TAF AMD
KMBL 230903Z 2309/2406 30009KT 2SM BR OVC003
      TEMPO 2309/2311 1/4SM FG
     FM231300 35011G21KT P6SM OVC015
     FM232000 02012G21KT P6SM OVC035
     FM240100 04007KT P6SM OVC040=

USA.gov is the U.S. government's official web portal to all federal, state and local government web resources and services.